HVN631 VVTS-WIII

Flight info

Callsign HVN631
Flight time N/A
Altitude 33000
Route NIXI5A NIXIV L643 CN L644 DUDIS/N0459F340 DCT LIGVU/N0459F350 L644 TPN W38W AMBOY AMBO2M
Aircraft A321/M-VGDW/C

Departure

Time N/A
Airport Tan Son Nhat International Airport (VVTS)

Arrival

Time 2026-04-30 18:45
Airport Soekarno-Hatta International Airport (WIII)
Time Latitude Longitude Altitude Speed Heading
2026-04-30 17:39 -0.75016 107.19488 32917 ft 456 kts 162°
2026-04-30 17:42 -1.05614 107.28143 32929 ft 458 kts 162°
2026-04-30 17:43 -1.20898 107.32469 32928 ft 455 kts 162°
2026-04-30 17:44 -1.39101 107.37614 32922 ft 452 kts 162°
2026-04-30 17:47 -1.66216 107.45279 32929 ft 448 kts 162°
2026-04-30 17:48 -1.87164 107.51203 32925 ft 447 kts 162°
2026-04-30 17:50 -2.11107 107.57974 32919 ft 447 kts 162°
2026-04-30 17:52 -2.29110 107.63058 32900 ft 450 kts 162°
2026-04-30 17:54 -2.56287 107.70742 32920 ft 452 kts 162°
2026-04-30 17:56 -2.80512 107.77660 32920 ft 452 kts 161°
2026-04-30 17:58 -2.98619 107.82986 32906 ft 453 kts 161°
2026-04-30 18:00 -3.22792 107.90083 32910 ft 454 kts 161°
2026-04-30 18:01 -3.36962 107.94231 32917 ft 454 kts 161°
2026-04-30 18:02 -3.55095 107.99569 32911 ft 454 kts 161°
2026-04-30 18:04 -3.73230 108.04885 32931 ft 450 kts 162°
2026-04-30 18:06 -3.97149 108.11923 32917 ft 447 kts 162°
2026-04-30 18:08 -4.18377 108.13981 32895 ft 457 kts 203°
2026-04-30 18:10 -4.40965 108.02148 32897 ft 460 kts 206°
2026-04-30 18:11 -4.60827 107.91698 32913 ft 461 kts 206°
2026-04-30 18:13 -4.75094 107.84179 32903 ft 471 kts 206°
2026-04-30 18:14 -4.89660 107.76507 32901 ft 473 kts 206°
2026-04-30 18:15 -5.07163 107.67272 32901 ft 475 kts 206°
2026-04-30 18:16 -5.18536 107.60611 32882 ft 480 kts 225°
2026-04-30 18:17 -5.20584 107.57980 32881 ft 481 kts 240°
2026-04-30 18:17 -5.21970 107.54936 32885 ft 475 kts 248°
2026-04-30 18:17 -5.24330 107.48922 31891 ft 456 kts 248°
2026-04-30 18:18 -5.25484 107.45976 31226 ft 451 kts 248°
2026-04-30 18:18 -5.26625 107.43067 30560 ft 446 kts 248°
2026-04-30 18:18 -5.27761 107.40182 29894 ft 443 kts 248°
2026-04-30 18:18 -5.28884 107.37326 29194 ft 437 kts 248°
2026-04-30 18:19 -5.29992 107.34512 28551 ft 430 kts 248°
2026-04-30 18:19 -5.31081 107.31739 27900 ft 425 kts 248°
2026-04-30 18:19 -5.32158 107.28991 27264 ft 421 kts 248°
2026-04-30 18:19 -5.33223 107.26274 26712 ft 414 kts 248°
2026-04-30 18:20 -5.34264 107.23621 26305 ft 405 kts 248°
2026-04-30 18:20 -5.35292 107.21009 25770 ft 400 kts 248°
2026-04-30 18:20 -5.36307 107.18427 25216 ft 396 kts 248°
2026-04-30 18:20 -5.37308 107.15871 24657 ft 392 kts 248°
2026-04-30 18:21 -5.38299 107.13333 24100 ft 388 kts 248°
2026-04-30 18:21 -5.39277 107.10825 23546 ft 385 kts 248°
2026-04-30 18:21 -5.40248 107.08334 22904 ft 381 kts 248°
2026-04-30 18:21 -5.41208 107.05871 22279 ft 377 kts 248°
2026-04-30 18:22 -5.42161 107.03427 21669 ft 373 kts 249°
2026-04-30 18:22 -5.44019 106.98653 20482 ft 366 kts 248°
2026-04-30 18:22 -5.44932 106.96312 20172 ft 354 kts 248°
2026-04-30 18:23 -5.45837 106.94001 19366 ft 360 kts 248°
2026-04-30 18:23 -5.46755 106.91656 18804 ft 357 kts 248°
2026-04-30 18:23 -5.47598 106.89346 18394 ft 349 kts 257°
2026-04-30 18:23 -5.47818 106.86960 17870 ft 343 kts 276°
2026-04-30 18:24 -5.45992 106.82715 16699 ft 332 kts 315°
2026-04-30 18:24 -5.44212 106.81282 16116 ft 327 kts 333°
2026-04-30 18:24 -5.42107 106.80491 15549 ft 322 kts 351°
2026-04-30 18:25 -5.39897 106.80391 14988 ft 317 kts
2026-04-30 18:25 -5.35977 106.82115 13903 ft 308 kts 43°
2026-04-30 18:25 -5.34602 106.83741 13336 ft 305 kts 60°
2026-04-30 18:26 -5.32819 106.87568 12171 ft 301 kts 69°
2026-04-30 18:26 -5.32071 106.89525 11619 ft 300 kts 70°
2026-04-30 18:26 -5.31349 106.91470 11295 ft 297 kts 71°
2026-04-30 18:27 -5.30015 106.95417 11252 ft 300 kts 82°
2026-04-30 18:27 -5.29959 106.97469 11256 ft 298 kts 98°
2026-04-30 18:28 -5.31533 107.01249 11255 ft 297 kts 130°
2026-04-30 18:28 -5.33055 107.02652 11259 ft 299 kts 146°
2026-04-30 18:28 -5.36952 107.03885 11250 ft 292 kts 179°
2026-04-30 18:29 -5.38946 107.03630 11258 ft 290 kts 195°
2026-04-30 18:29 -5.43505 106.99867 11261 ft 294 kts 242°
2026-04-30 18:30 -5.45144 106.96103 11259 ft 295 kts 248°
2026-04-30 18:30 -5.46875 106.92390 11013 ft 292 kts 229°
2026-04-30 18:31 -5.48372 106.91052 10773 ft 287 kts 210°
2026-04-30 18:31 -5.52148 106.90089 10319 ft 282 kts 179°
2026-04-30 18:32 -5.56029 106.90046 9827 ft 276 kts 180°
2026-04-30 18:32 -5.57946 106.90013 9474 ft 275 kts 180°
2026-04-30 18:32 -5.61732 106.89949 8805 ft 273 kts 180°
2026-04-30 18:33 -5.63632 106.89922 8461 ft 272 kts 180°
2026-04-30 18:33 -5.67404 106.89868 7795 ft 270 kts 180°
2026-04-30 18:33 -5.69283 106.89841 7465 ft 270 kts 180°
2026-04-30 18:34 -5.71160 106.89814 7131 ft 270 kts 181°
2026-04-30 18:34 -5.74950 106.89744 6291 ft 277 kts 181°
2026-04-30 18:34 -5.76868 106.89703 5999 ft 274 kts 181°
2026-04-30 18:35 -5.78771 106.89660 5664 ft 273 kts 181°
2026-04-30 18:35 -5.80670 106.89619 5310 ft 273 kts 181°
2026-04-30 18:35 -5.82557 106.89579 4866 ft 270 kts 181°
2026-04-30 18:36 -5.86293 106.89499 3933 ft 266 kts 181°
2026-04-30 18:36 -5.88130 106.89460 3566 ft 260 kts 181°
2026-04-30 18:36 -5.91560 106.89387 3289 ft 238 kts 180°
2026-04-30 18:37 -5.93209 106.89352 3190 ft 237 kts 180°
2026-04-30 18:37 -5.94854 106.89312 3088 ft 236 kts 183°
2026-04-30 18:37 -5.96425 106.88890 2979 ft 236 kts 209°
2026-04-30 18:37 -5.97718 106.87884 2832 ft 236 kts 220°
2026-04-30 18:38 -5.98959 106.86800 2661 ft 236 kts 220°
2026-04-30 18:38 -6.00201 106.85725 2506 ft 236 kts 220°
2026-04-30 18:38 -6.01432 106.84662 2389 ft 228 kts 219°
2026-04-30 18:38 -6.02612 106.83642 2215 ft 220 kts 220°
2026-04-30 18:39 -6.03763 106.82641 2092 ft 218 kts 223°
2026-04-30 18:39 -6.04633 106.81405 2004 ft 217 kts 246°
2026-04-30 18:39 -6.05158 106.80064 2018 ft 194 kts 248°
2026-04-30 18:39 -6.05627 106.78882 1999 ft 178 kts 247°
2026-04-30 18:40 -6.06079 106.77757 1999 ft 171 kts 247°
2026-04-30 18:40 -6.06524 106.76648 1936 ft 170 kts 248°
2026-04-30 18:40 -6.06953 106.75575 1764 ft 163 kts 247°
2026-04-30 18:40 -6.07373 106.74521 1578 ft 161 kts 247°
2026-04-30 18:41 -6.07791 106.73476 1373 ft 160 kts 247°
2026-04-30 18:41 -6.08203 106.72443 1167 ft 159 kts 247°
2026-04-30 18:41 -6.08612 106.71418 973 ft 158 kts 246°
2026-04-30 18:41 -6.09017 106.70399 758 ft 156 kts 246°
2026-04-30 18:42 -6.09415 106.69392 555 ft 154 kts 246°
2026-04-30 18:42 -6.10206 106.67406 174 ft 152 kts 247°
2026-04-30 18:42 -6.10594 106.66425 39 ft 145 kts 247°
2026-04-30 18:45 -6.11964 106.64652 39 ft 14 kts 139°
2026-04-30 18:45 -6.11947 106.64740 38 ft 14 kts 66°
2026-04-30 18:45 -6.11906 106.64837 38 ft 16 kts 68°
2026-04-30 18:46 -6.11865 106.64942 36 ft 17 kts 69°
2026-04-30 18:46 -6.11821 106.65053 37 ft 18 kts 68°
2026-04-30 18:46 -6.11774 106.65171 38 ft 19 kts 68°
2026-04-30 18:46 -6.11725 106.65294 38 ft 20 kts 68°
2026-04-30 18:47 -6.11673 106.65424 38 ft 21 kts 68°
2026-04-30 18:47 -6.11618 106.65562 37 ft 22 kts 68°
2026-04-30 18:47 -6.11562 106.65705 37 ft 22 kts 68°
2026-04-30 18:47 -6.11510 106.65834 36 ft 12 kts 69°
2026-04-30 18:48 -6.11540 106.65905 38 ft 13 kts 148°
2026-04-30 18:48 -6.11621 106.65946 38 ft 14 kts 155°
2026-04-30 18:48 -6.11712 106.65982 38 ft 15 kts 158°
2026-04-30 18:48 -6.11788 106.66014 38 ft 9 kts 158°
2026-04-30 18:49 -6.11828 106.65994 38 ft 8 kts 243°
2026-04-30 18:49 -6.11839 106.65968 38 ft 3 kts 247°
2026-04-30 18:49 -6.11842 106.65961 38 ft 0 kts 246°